Year,Month,Day,Hour,Minute,Value (Times are PST for temperature in C)
2005,05,23,00,00,11.00
2005,05,23,00,01,11.00
2005,05,23,00,02,11.00
2005,05,23,00,03,11.00
2005,05,23,00,04,11.10
2005,05,23,00,05,11.10
2005,05,23,00,06,11.10
2005,05,23,00,07,11.10
2005,05,23,00,08,11.10
2005,05,23,00,09,11.10
2005,05,23,00,10,11.20
2005,05,23,00,11,11.10
2005,05,23,00,12,11.20
2005,05,23,00,13,11.10
2005,05,23,00,14,11.10
2005,05,23,00,15,11.10
2005,05,23,00,20,11.10
2005,05,23,00,25,11.10
2005,05,23,00,26,11.10
2005,05,23,00,27,11.10
2005,05,23,00,28,11.10
2005,05,23,00,30,11.10
2005,05,23,00,31,11.10
2005,05,23,00,32,11.20
2005,05,23,00,33,11.10
2005,05,23,00,34,11.20
2005,05,23,00,35,11.20
2005,05,23,00,36,11.10
2005,05,23,00,37,11.10
2005,05,23,00,38,11.10
2005,05,23,00,39,11.10
2005,05,23,00,40,11.10
2005,05,23,00,41,11.10
2005,05,23,00,42,11.10
2005,05,23,00,43,11.10
2005,05,23,00,44,11.10
2005,05,23,00,45,11.10
2005,05,23,00,46,11.10
2005,05,23,00,47,11.10
2005,05,23,00,48,11.10
2005,05,23,00,49,11.10
2005,05,23,00,50,11.10
2005,05,23,00,51,11.10
2005,05,23,00,52,11.10
2005,05,23,00,53,11.10
2005,05,23,00,54,11.10
2005,05,23,00,55,11.00
2005,05,23,00,56,10.90
2005,05,23,00,57,10.90
2005,05,23,00,58,10.90
2005,05,23,00,59,10.90
2005,05,23,01,00,10.90
2005,05,23,01,01,11.00
2005,05,23,01,02,10.90
2005,05,23,01,03,10.90
2005,05,23,01,04,10.90
2005,05,23,01,05,10.90
2005,05,23,01,06,10.90
2005,05,23,01,07,10.90
2005,05,23,01,08,11.00
2005,05,23,01,09,11.00
2005,05,23,01,10,11.00
2005,05,23,01,11,11.00
2005,05,23,01,12,11.00
2005,05,23,01,13,11.00
2005,05,23,01,14,11.00
2005,05,23,01,15,10.90
2005,05,23,01,16,10.90
2005,05,23,01,17,10.90
2005,05,23,01,18,10.90
2005,05,23,01,19,10.90
2005,05,23,01,20,10.90
2005,05,23,01,21,10.90
2005,05,23,01,22,10.90
2005,05,23,01,23,10.90
2005,05,23,01,24,10.80
2005,05,23,01,25,10.80
2005,05,23,01,26,10.80
2005,05,23,01,27,10.80
2005,05,23,01,28,10.70
2005,05,23,01,29,10.70
2005,05,23,01,30,10.80
2005,05,23,01,31,10.80
2005,05,23,01,32,10.80
2005,05,23,01,33,10.80
2005,05,23,01,34,10.80
2005,05,23,01,35,10.80
2005,05,23,01,36,10.80
2005,05,23,01,37,10.80
2005,05,23,01,38,10.80
2005,05,23,01,39,10.80
2005,05,23,01,40,10.90
2005,05,23,01,41,10.90
2005,05,23,01,42,10.90
2005,05,23,01,43,10.90
2005,05,23,01,44,10.90
2005,05,23,01,45,10.80
2005,05,23,01,46,10.80
2005,05,23,01,47,10.90
2005,05,23,01,48,10.90
2005,05,23,01,49,10.90
2005,05,23,01,50,10.90
2005,05,23,01,51,10.90
2005,05,23,01,52,10.90
2005,05,23,01,53,10.90
2005,05,23,01,54,10.90
2005,05,23,01,55,10.90
2005,05,23,01,56,10.90
2005,05,23,01,57,10.80
2005,05,23,01,58,10.80
2005,05,23,01,59,10.80
2005,05,23,02,00,10.80
2005,05,23,02,01,10.80
2005,05,23,02,02,10.80
2005,05,23,02,03,10.80
2005,05,23,02,04,10.80
2005,05,23,02,05,10.80
2005,05,23,02,06,10.70
2005,05,23,02,07,10.80
2005,05,23,02,08,10.70
2005,05,23,02,09,10.70
2005,05,23,02,10,10.70
2005,05,23,02,11,10.70
2005,05,23,02,12,10.70
2005,05,23,02,13,10.70
2005,05,23,02,14,10.70
2005,05,23,02,15,10.70
2005,05,23,02,16,10.70
2005,05,23,02,17,10.70
2005,05,23,02,18,10.70
2005,05,23,02,19,10.70
2005,05,23,02,20,10.70
2005,05,23,02,21,10.60
2005,05,23,02,22,10.60
2005,05,23,02,23,10.70
2005,05,23,02,24,10.70
2005,05,23,02,25,10.70
2005,05,23,02,26,10.60
2005,05,23,02,27,10.60
2005,05,23,02,28,10.60
2005,05,23,02,29,10.60
2005,05,23,02,30,10.60
2005,05,23,02,31,10.60
2005,05,23,02,32,10.60
2005,05,23,02,33,10.60
2005,05,23,02,34,10.60
2005,05,23,02,35,10.60
2005,05,23,02,36,10.60
2005,05,23,02,37,10.60
2005,05,23,02,38,10.60
2005,05,23,02,39,10.60
2005,05,23,02,40,10.60
2005,05,23,02,41,10.60
2005,05,23,02,42,10.70
2005,05,23,02,43,10.70
2005,05,23,02,44,10.70
2005,05,23,02,45,10.80
2005,05,23,02,46,10.70
2005,05,23,02,47,10.80
2005,05,23,02,48,10.80
2005,05,23,02,49,10.80
2005,05,23,02,50,10.80
2005,05,23,02,51,10.80
2005,05,23,02,52,10.70
2005,05,23,02,53,10.70
2005,05,23,02,54,10.70
2005,05,23,02,55,10.60
2005,05,23,02,56,10.60
2005,05,23,02,57,10.70
2005,05,23,02,58,10.70
2005,05,23,02,59,10.70
2005,05,23,03,00,10.70
2005,05,23,03,01,10.80
2005,05,23,03,02,10.80
2005,05,23,03,03,10.80
2005,05,23,03,04,10.80
2005,05,23,03,05,10.80
2005,05,23,03,06,10.90
2005,05,23,03,07,10.90
2005,05,23,03,08,10.90
2005,05,23,03,09,10.90
2005,05,23,03,10,10.80
2005,05,23,03,11,10.80
2005,05,23,03,12,10.80
2005,05,23,03,13,10.80
2005,05,23,03,14,10.80
2005,05,23,03,15,10.80
2005,05,23,03,16,10.80
2005,05,23,03,17,10.80
2005,05,23,03,18,10.70
2005,05,23,03,19,10.70
2005,05,23,03,20,10.60
2005,05,23,03,21,10.60
2005,05,23,03,22,10.60
2005,05,23,03,23,10.50
2005,05,23,03,24,10.50
2005,05,23,03,25,10.60
2005,05,23,03,26,10.60
2005,05,23,03,27,10.60
2005,05,23,03,28,10.60
2005,05,23,03,29,10.60
2005,05,23,03,30,10.60
2005,05,23,03,31,10.50
2005,05,23,03,32,10.60
2005,05,23,03,33,10.50
2005,05,23,03,34,10.60
2005,05,23,03,35,10.60
2005,05,23,03,36,10.60
2005,05,23,03,37,10.60
2005,05,23,03,38,10.60
2005,05,23,03,39,10.60
2005,05,23,03,40,10.60
2005,05,23,03,41,10.60
2005,05,23,03,42,10.60
2005,05,23,03,43,10.60
2005,05,23,03,44,10.60
2005,05,23,03,45,10.60
2005,05,23,03,46,10.60
2005,05,23,03,47,10.50
2005,05,23,03,48,10.50
2005,05,23,03,49,10.50
2005,05,23,03,50,10.50
2005,05,23,03,51,10.40
2005,05,23,03,52,10.40
2005,05,23,03,53,10.40
2005,05,23,03,54,10.40
2005,05,23,03,55,10.40
2005,05,23,03,56,10.40
2005,05,23,03,57,10.40
2005,05,23,03,58,10.40
2005,05,23,03,59,10.40
2005,05,23,04,00,10.40
2005,05,23,04,01,10.40
2005,05,23,04,02,10.50
2005,05,23,04,03,10.50
2005,05,23,04,04,10.60
2005,05,23,04,05,10.60
2005,05,23,04,06,10.60
2005,05,23,04,07,10.60
2005,05,23,04,08,10.60
2005,05,23,04,09,10.70
2005,05,23,04,10,10.70
2005,05,23,04,11,10.60
2005,05,23,04,12,10.60
2005,05,23,04,13,10.70
2005,05,23,04,14,10.70
2005,05,23,04,15,10.70
2005,05,23,04,16,10.60
2005,05,23,04,17,10.70
2005,05,23,04,18,10.70
2005,05,23,04,19,10.60
2005,05,23,04,20,10.60
2005,05,23,04,21,10.60
2005,05,23,04,22,10.50
2005,05,23,04,23,10.40
2005,05,23,04,24,10.40
2005,05,23,04,25,10.40
2005,05,23,04,26,10.50
2005,05,23,04,27,10.50
2005,05,23,04,28,10.50
2005,05,23,04,29,10.50
2005,05,23,04,30,10.50
2005,05,23,04,31,10.50
2005,05,23,04,32,10.60
2005,05,23,04,33,10.60
2005,05,23,04,34,10.60
2005,05,23,04,35,10.60
2005,05,23,04,36,10.50
2005,05,23,04,37,10.50
2005,05,23,04,38,10.50
2005,05,23,04,39,10.50
2005,05,23,04,40,10.40
2005,05,23,04,41,10.50
2005,05,23,04,42,10.50
2005,05,23,04,43,10.50
2005,05,23,04,44,10.50
2005,05,23,04,45,10.40
2005,05,23,04,46,10.40
2005,05,23,04,47,10.50
2005,05,23,04,48,10.50
2005,05,23,04,49,10.40
2005,05,23,04,50,10.50
2005,05,23,04,51,10.40
2005,05,23,04,52,10.40
2005,05,23,04,53,10.50
2005,05,23,04,54,10.50
2005,05,23,04,55,10.50
2005,05,23,04,56,10.50
2005,05,23,04,57,10.60
2005,05,23,04,58,10.60
2005,05,23,04,59,10.50
2005,05,23,05,00,10.40
2005,05,23,05,01,10.40
2005,05,23,05,02,10.40
2005,05,23,05,03,10.30
2005,05,23,05,04,10.40
2005,05,23,05,05,10.40
2005,05,23,05,06,10.40
2005,05,23,05,07,10.50
2005,05,23,05,08,10.50
2005,05,23,05,09,10.50
2005,05,23,05,10,10.60
2005,05,23,05,11,10.60
2005,05,23,05,12,10.60
2005,05,23,05,13,10.70
2005,05,23,05,14,10.70
2005,05,23,05,15,10.70
2005,05,23,05,16,10.70
2005,05,23,05,17,10.70
2005,05,23,05,18,10.70
2005,05,23,05,19,10.70
2005,05,23,05,20,10.70
2005,05,23,05,21,10.60
2005,05,23,05,22,10.60
2005,05,23,05,23,10.60
2005,05,23,05,24,10.60
2005,05,23,05,25,10.60
2005,05,23,05,26,10.50
2005,05,23,05,27,10.60
2005,05,23,05,28,10.50
2005,05,23,05,29,10.60
2005,05,23,05,30,10.60
2005,05,23,05,31,10.60
2005,05,23,05,32,10.60
2005,05,23,05,33,10.60
2005,05,23,05,34,10.60
2005,05,23,05,35,10.60
2005,05,23,05,36,10.60
2005,05,23,05,37,10.60
2005,05,23,05,38,10.60
2005,05,23,05,39,10.60
2005,05,23,05,40,10.60
2005,05,23,05,41,10.60
2005,05,23,05,42,10.60
2005,05,23,05,43,10.60
2005,05,23,05,44,10.60
2005,05,23,05,45,10.60
2005,05,23,05,46,10.60
2005,05,23,05,47,10.50
2005,05,23,05,48,10.50
2005,05,23,05,49,10.60
2005,05,23,05,50,10.60
2005,05,23,05,51,10.60
2005,05,23,05,52,10.60
2005,05,23,05,53,10.50
2005,05,23,05,54,10.40
2005,05,23,05,55,10.40
2005,05,23,05,56,10.30
2005,05,23,05,57,10.20
2005,05,23,05,58,10.20
2005,05,23,05,59,10.10
2005,05,23,06,00,10.10
2005,05,23,06,01,10.10
2005,05,23,06,02,10.10
2005,05,23,06,03,10.10
2005,05,23,06,04,10.10
2005,05,23,06,05,10.10
2005,05,23,06,06,10.10
2005,05,23,06,07,10.10
2005,05,23,06,08,10.10
2005,05,23,06,09,10.10
2005,05,23,06,10,10.10
2005,05,23,06,11,10.10
2005,05,23,06,12,10.10
2005,05,23,06,13,10.10
2005,05,23,06,14,10.10
2005,05,23,06,15,10.10
2005,05,23,06,16,10.10
2005,05,23,06,17,10.10
2005,05,23,06,18,10.10
2005,05,23,06,19,10.10
2005,05,23,06,20,10.10
2005,05,23,06,21,10.10
2005,05,23,06,22,10.10
2005,05,23,06,23,10.10
2005,05,23,06,24,10.10
2005,05,23,06,25,10.10
2005,05,23,06,26,10.10
2005,05,23,06,27,10.10
2005,05,23,06,28,10.10
2005,05,23,06,29,10.10
2005,05,23,06,30,10.10
2005,05,23,06,31,10.10
2005,05,23,06,32,10.10
2005,05,23,06,33,10.10
2005,05,23,06,34,10.10
2005,05,23,06,35,10.10
2005,05,23,06,36,10.10
2005,05,23,06,37,10.10
2005,05,23,06,38,10.10
2005,05,23,06,39,10.10
2005,05,23,06,40,10.10
2005,05,23,06,41,10.00
2005,05,23,06,42,10.10
2005,05,23,06,43,10.10
2005,05,23,06,44,10.10
2005,05,23,06,45,10.00
2005,05,23,06,46,10.10
2005,05,23,06,47,10.10
2005,05,23,06,48,10.10
2005,05,23,06,49,10.10
2005,05,23,06,50,10.10
2005,05,23,06,51,10.00
2005,05,23,06,52,9.90
2005,05,23,06,53,9.90
2005,05,23,06,54,9.90
2005,05,23,06,55,10.00
2005,05,23,06,56,10.00
2005,05,23,06,57,10.10
2005,05,23,06,58,10.10
2005,05,23,06,59,10.10
2005,05,23,07,00,10.10
2005,05,23,07,01,10.10
2005,05,23,07,02,10.10
2005,05,23,07,03,10.10
2005,05,23,07,04,10.20
2005,05,23,07,05,10.20
2005,05,23,07,06,10.10
2005,05,23,07,07,10.10
2005,05,23,07,08,10.10
2005,05,23,07,09,10.10
2005,05,23,07,10,10.10
2005,05,23,07,11,10.10
2005,05,23,07,12,10.10
2005,05,23,07,13,10.10
2005,05,23,07,14,10.10
2005,05,23,07,15,10.10
2005,05,23,07,16,10.10
2005,05,23,07,17,10.00
2005,05,23,07,18,9.90
2005,05,23,07,19,9.90
2005,05,23,07,20,9.90
2005,05,23,07,21,9.90
2005,05,23,07,22,9.90
2005,05,23,07,23,10.00
2005,05,23,07,24,10.10
2005,05,23,07,25,10.10
2005,05,23,07,26,10.10
2005,05,23,07,27,10.10
2005,05,23,07,28,10.10
2005,05,23,07,29,10.00
2005,05,23,07,30,10.10
2005,05,23,07,31,10.10
2005,05,23,07,32,10.10
2005,05,23,07,33,10.10
2005,05,23,07,34,10.10
2005,05,23,07,35,10.00
2005,05,23,07,36,10.00
2005,05,23,07,37,9.90
2005,05,23,07,38,9.90
2005,05,23,07,39,9.90
2005,05,23,07,40,10.00
2005,05,23,07,41,10.00
2005,05,23,07,42,10.00
2005,05,23,07,43,10.10
2005,05,23,07,44,10.10
2005,05,23,07,45,10.10
2005,05,23,07,46,10.10
2005,05,23,07,47,10.10
2005,05,23,07,48,10.10
2005,05,23,07,49,10.10
2005,05,23,07,50,10.10
2005,05,23,07,51,10.10
2005,05,23,07,52,10.10
2005,05,23,07,53,10.10
2005,05,23,07,54,10.10
2005,05,23,07,55,10.10
2005,05,23,07,56,10.10
2005,05,23,07,57,10.10
2005,05,23,07,58,10.10
2005,05,23,07,59,10.10
2005,05,23,08,00,10.10
2005,05,23,08,01,10.10
2005,05,23,08,02,10.10
2005,05,23,08,03,10.10
2005,05,23,08,04,10.10
2005,05,23,08,05,10.20
2005,05,23,08,06,10.20
2005,05,23,08,07,10.20
2005,05,23,08,08,10.20
2005,05,23,08,09,10.30
2005,05,23,08,10,10.30
2005,05,23,08,11,10.40
2005,05,23,08,12,10.40
2005,05,23,08,13,10.40
2005,05,23,08,14,10.40
2005,05,23,08,15,10.50
2005,05,23,08,16,10.60
2005,05,23,08,17,10.60
2005,05,23,08,18,10.70
2005,05,23,08,19,10.90
2005,05,23,08,20,10.90
2005,05,23,08,21,11.10
2005,05,23,08,22,11.20
2005,05,23,08,23,11.20
2005,05,23,08,24,11.30
2005,05,23,08,25,11.50
2005,05,23,08,26,11.60
2005,05,23,08,27,11.60
2005,05,23,08,28,11.70
2005,05,23,08,29,11.80
2005,05,23,08,30,11.80
2005,05,23,08,31,11.80
2005,05,23,08,32,11.80
2005,05,23,08,33,11.80
2005,05,23,08,34,11.80
2005,05,23,08,35,11.90
2005,05,23,08,36,11.80
2005,05,23,08,37,11.90
2005,05,23,08,38,11.80
2005,05,23,08,39,11.90
2005,05,23,08,40,11.90
2005,05,23,08,41,11.90
2005,05,23,08,42,12.00
2005,05,23,08,43,12.10
2005,05,23,08,44,12.20
2005,05,23,08,45,12.30
2005,05,23,08,46,12.30
2005,05,23,08,47,12.50
2005,05,23,08,48,12.50
2005,05,23,08,49,12.40
2005,05,23,08,50,12.40
2005,05,23,08,51,12.50
2005,05,23,08,52,12.60
2005,05,23,08,53,12.50
2005,05,23,08,54,12.40
2005,05,23,08,55,12.30
2005,05,23,08,56,12.10
2005,05,23,08,57,12.00
2005,05,23,08,58,11.90
2005,05,23,08,59,12.10
2005,05,23,09,00,12.10
2005,05,23,09,01,12.10
2005,05,23,09,02,12.20
2005,05,23,09,03,12.00
2005,05,23,09,04,11.90
2005,05,23,09,05,11.80
2005,05,23,09,06,11.70
2005,05,23,09,07,11.70
2005,05,23,09,08,11.80
2005,05,23,09,09,11.80
2005,05,23,09,10,12.00
2005,05,23,09,11,12.10
2005,05,23,09,12,12.10
2005,05,23,09,13,12.30
2005,05,23,09,14,12.40
2005,05,23,09,15,12.40
2005,05,23,09,16,12.40
2005,05,23,09,17,12.30
2005,05,23,09,18,12.30
2005,05,23,09,19,12.30
2005,05,23,09,20,12.30
2005,05,23,09,21,12.20
2005,05,23,09,22,12.20
2005,05,23,09,23,12.30
2005,05,23,09,24,12.30
2005,05,23,09,25,12.30
2005,05,23,09,26,12.30
2005,05,23,09,27,12.40
2005,05,23,09,28,12.30
2005,05,23,09,29,12.30
2005,05,23,09,30,12.40
2005,05,23,09,31,12.30
2005,05,23,09,32,12.40
2005,05,23,09,33,12.50
2005,05,23,09,34,12.60
2005,05,23,09,35,12.50
2005,05,23,09,36,12.40
2005,05,23,09,37,12.30
2005,05,23,09,38,12.10
2005,05,23,09,39,12.10
2005,05,23,09,40,12.10
2005,05,23,09,41,12.10
2005,05,23,09,42,12.20
2005,05,23,09,43,12.20
2005,05,23,09,44,12.20
2005,05,23,09,45,12.30
2005,05,23,09,46,12.30
2005,05,23,09,47,12.30
2005,05,23,09,48,12.20
2005,05,23,09,49,12.20
2005,05,23,09,50,12.10
2005,05,23,09,51,12.10
2005,05,23,09,52,12.20
2005,05,23,09,53,12.40
2005,05,23,09,54,12.40
2005,05,23,09,55,12.40
2005,05,23,09,56,12.50
2005,05,23,09,57,12.60
2005,05,23,09,58,12.50
2005,05,23,09,59,12.50
2005,05,23,10,00,12.50
2005,05,23,10,01,12.60
2005,05,23,10,02,12.50
2005,05,23,10,03,12.50
2005,05,23,10,04,12.70
2005,05,23,10,05,12.80
2005,05,23,10,06,12.90
2005,05,23,10,07,13.10
2005,05,23,10,08,12.90
2005,05,23,10,09,12.90
2005,05,23,10,10,13.00
2005,05,23,10,11,13.10
2005,05,23,10,12,13.10
2005,05,23,10,13,12.90
2005,05,23,10,14,13.00
2005,05,23,10,15,12.90
2005,05,23,10,16,13.00
2005,05,23,10,17,13.10
2005,05,23,10,18,13.20
2005,05,23,10,19,13.20
2005,05,23,10,20,13.40
2005,05,23,10,21,13.40
2005,05,23,10,22,13.50
2005,05,23,10,23,13.50
2005,05,23,10,24,13.40
2005,05,23,10,25,13.50
2005,05,23,10,26,13.50
2005,05,23,10,27,13.30
2005,05,23,10,28,13.30
2005,05,23,10,29,13.40
2005,05,23,10,30,13.60
2005,05,23,10,31,13.70
2005,05,23,10,32,13.90
2005,05,23,10,33,14.00
2005,05,23,10,34,14.10
2005,05,23,10,35,14.20
2005,05,23,10,36,14.40
2005,05,23,10,37,14.60
2005,05,23,10,38,14.50
2005,05,23,10,39,14.60
2005,05,23,10,40,14.60
2005,05,23,10,41,14.50
2005,05,23,10,42,14.40
2005,05,23,10,43,14.20
2005,05,23,10,44,14.00
2005,05,23,10,45,13.70
2005,05,23,10,46,13.50
2005,05,23,10,47,13.10
2005,05,23,10,48,12.90
2005,05,23,10,49,12.70
2005,05,23,10,50,12.80
2005,05,23,10,51,12.90
2005,05,23,10,52,12.90
2005,05,23,10,53,12.90
2005,05,23,10,54,12.80
2005,05,23,10,55,12.90
2005,05,23,10,56,12.90
2005,05,23,10,57,13.00
2005,05,23,10,58,13.00
2005,05,23,10,59,13.10
2005,05,23,11,00,13.10
2005,05,23,11,01,13.10
2005,05,23,11,02,13.10
2005,05,23,11,03,13.10
2005,05,23,11,04,13.10
2005,05,23,11,05,13.20
2005,05,23,11,06,13.00
2005,05,23,11,07,12.90
2005,05,23,11,08,12.90
2005,05,23,11,09,13.00
2005,05,23,11,10,13.00
2005,05,23,11,11,12.80
2005,05,23,11,12,12.80
2005,05,23,11,13,12.70
2005,05,23,11,14,12.60
2005,05,23,11,15,12.60
2005,05,23,11,16,12.50
2005,05,23,11,17,12.30
2005,05,23,11,18,12.30
2005,05,23,11,19,12.20
2005,05,23,11,20,12.20
2005,05,23,11,21,12.10
2005,05,23,11,22,12.10
2005,05,23,11,23,12.00
2005,05,23,11,24,12.00
2005,05,23,11,25,12.10
2005,05,23,11,26,12.10
2005,05,23,11,27,12.20
2005,05,23,11,28,12.30
2005,05,23,11,29,12.30
2005,05,23,11,30,12.30
2005,05,23,11,31,12.20
2005,05,23,11,32,12.20
2005,05,23,11,33,12.20
2005,05,23,11,34,12.20
2005,05,23,11,35,12.20
2005,05,23,11,36,12.20
2005,05,23,11,37,12.20
2005,05,23,11,38,12.20
2005,05,23,11,39,12.20
2005,05,23,11,40,12.20
2005,05,23,11,41,12.20
2005,05,23,11,42,12.20
2005,05,23,11,43,12.20
2005,05,23,11,44,12.20
2005,05,23,11,45,12.10
2005,05,23,11,46,12.00
2005,05,23,11,47,12.10
2005,05,23,11,48,12.10
2005,05,23,11,49,12.10
2005,05,23,11,50,12.10
2005,05,23,11,51,12.20
2005,05,23,11,52,12.20
2005,05,23,11,53,12.20
2005,05,23,11,54,12.20
2005,05,23,11,55,12.20
2005,05,23,11,56,12.10
2005,05,23,11,57,12.10
2005,05,23,11,58,12.10
2005,05,23,11,59,12.20
2005,05,23,12,00,12.30
2005,05,23,12,01,12.30
2005,05,23,12,02,12.20
2005,05,23,12,03,12.20
2005,05,23,12,04,12.30
2005,05,23,12,06,12.00
2005,05,23,12,07,12.10
2005,05,23,12,08,12.20
2005,05,23,12,09,12.30
2005,05,23,12,10,12.30
2005,05,23,12,11,12.30
2005,05,23,12,12,12.30
2005,05,23,12,13,12.40
2005,05,23,12,14,12.50
2005,05,23,12,15,12.60
2005,05,23,12,16,12.60
2005,05,23,12,17,12.60
2005,05,23,12,18,12.70
2005,05,23,12,19,12.70
2005,05,23,12,20,12.80
2005,05,23,12,21,12.80
2005,05,23,12,22,12.70
2005,05,23,12,23,12.70
2005,05,23,12,24,12.70
2005,05,23,12,25,12.60
2005,05,23,12,26,12.70
2005,05,23,12,27,12.70
2005,05,23,12,28,12.60
2005,05,23,12,29,12.60
2005,05,23,12,30,12.60
2005,05,23,12,31,12.60
2005,05,23,12,32,12.30
2005,05,23,12,33,12.30
2005,05,23,12,34,12.30
2005,05,23,12,35,12.30
2005,05,23,12,36,12.40
2005,05,23,12,37,12.40
2005,05,23,12,38,12.40
2005,05,23,12,39,12.40
2005,05,23,12,40,12.40
2005,05,23,12,41,12.30
2005,05,23,12,42,12.30
2005,05,23,12,43,12.40
2005,05,23,12,44,12.50
2005,05,23,12,45,12.40
2005,05,23,12,46,12.40
2005,05,23,12,47,12.50
2005,05,23,12,48,12.60
2005,05,23,12,49,12.60
2005,05,23,12,50,12.60
2005,05,23,12,51,12.50
2005,05,23,12,52,12.50
2005,05,23,12,53,12.50
2005,05,23,12,54,12.40
2005,05,23,12,55,12.40
2005,05,23,12,56,12.40
2005,05,23,12,57,12.40
2005,05,23,12,58,12.50
2005,05,23,12,59,12.60
2005,05,23,13,00,12.60
2005,05,23,13,01,12.60
2005,05,23,13,02,12.60
2005,05,23,13,03,12.60
2005,05,23,13,04,12.80
2005,05,23,13,05,12.80
2005,05,23,13,06,12.80
2005,05,23,13,07,12.80
2005,05,23,13,08,12.80
2005,05,23,13,09,12.90
2005,05,23,13,10,13.00
2005,05,23,13,11,13.10
2005,05,23,13,12,13.20
2005,05,23,13,13,13.20
2005,05,23,13,14,13.10
2005,05,23,13,15,13.10
2005,05,23,13,16,13.00
2005,05,23,13,17,13.00
2005,05,23,13,18,12.80
2005,05,23,13,19,12.70
2005,05,23,13,20,12.60
2005,05,23,13,21,12.60
2005,05,23,13,22,12.60
2005,05,23,13,23,12.70
2005,05,23,13,24,12.90
2005,05,23,13,25,13.10
2005,05,23,13,26,13.30
2005,05,23,13,27,13.50
2005,05,23,13,28,13.80
2005,05,23,13,29,13.90
2005,05,23,13,30,14.00
2005,05,23,13,31,14.20
2005,05,23,13,32,14.20
2005,05,23,13,33,14.20
2005,05,23,13,34,14.10
2005,05,23,13,35,13.90
2005,05,23,13,36,13.80
2005,05,23,13,37,13.80
2005,05,23,13,38,13.70
2005,05,23,13,39,13.70
2005,05,23,13,40,13.60
2005,05,23,13,41,13.40
2005,05,23,13,42,13.40
2005,05,23,13,43,13.50
2005,05,23,13,44,13.70
2005,05,23,13,45,14.00
2005,05,23,13,46,14.20
2005,05,23,13,47,14.60
2005,05,23,13,48,14.80
2005,05,23,13,49,14.90
2005,05,23,13,50,15.10
2005,05,23,13,51,15.20
2005,05,23,13,52,15.20
2005,05,23,13,53,15.40
2005,05,23,13,54,15.20
2005,05,23,13,55,15.30
2005,05,23,13,56,15.30
2005,05,23,13,57,15.40
2005,05,23,13,58,15.50
2005,05,23,13,59,15.50
2005,05,23,14,00,15.60
2005,05,23,14,01,15.80
2005,05,23,14,02,15.80
2005,05,23,14,03,16.00
2005,05,23,14,04,15.90
2005,05,23,14,05,15.90
2005,05,23,14,06,15.80
2005,05,23,14,07,15.80
2005,05,23,14,08,15.80
2005,05,23,14,09,15.90
2005,05,23,14,10,16.00
2005,05,23,14,11,16.10
2005,05,23,14,12,16.20
2005,05,23,14,13,16.30
2005,05,23,14,14,16.40
2005,05,23,14,15,16.20
2005,05,23,14,16,16.10
2005,05,23,14,17,16.10
2005,05,23,14,18,16.10
2005,05,23,14,19,16.10
2005,05,23,14,20,15.90
2005,05,23,14,21,15.70
2005,05,23,14,22,15.60
2005,05,23,14,23,15.60
2005,05,23,14,24,15.60
2005,05,23,14,25,15.60
2005,05,23,14,26,15.70
2005,05,23,14,27,15.80
2005,05,23,14,28,15.80
2005,05,23,14,29,15.90
2005,05,23,14,30,16.10
2005,05,23,14,31,16.20
2005,05,23,14,32,16.30
2005,05,23,14,33,16.40
2005,05,23,14,34,16.40
2005,05,23,14,35,16.20
2005,05,23,14,36,16.10
2005,05,23,14,37,15.90
2005,05,23,14,38,16.00
2005,05,23,14,39,16.10
2005,05,23,14,40,16.20
2005,05,23,14,41,16.30
2005,05,23,14,42,16.30
2005,05,23,14,43,16.50
2005,05,23,14,44,16.30
2005,05,23,14,45,16.20
2005,05,23,14,46,16.10
2005,05,23,14,47,16.10
2005,05,23,14,48,16.10
2005,05,23,14,49,16.10
2005,05,23,14,50,16.10
2005,05,23,14,51,16.10
2005,05,23,14,52,16.10
2005,05,23,14,53,15.90
2005,05,23,14,54,15.80
2005,05,23,14,55,15.70
2005,05,23,14,56,15.70
2005,05,23,14,57,15.80
2005,05,23,14,58,15.90
2005,05,23,14,59,16.10
2005,05,23,15,00,16.20
2005,05,23,15,01,16.30
2005,05,23,15,02,16.40
2005,05,23,15,03,16.40
2005,05,23,15,04,16.40
2005,05,23,15,05,16.40
2005,05,23,15,06,16.40
2005,05,23,15,07,16.50
2005,05,23,15,08,16.60
2005,05,23,15,09,16.60
2005,05,23,15,10,16.60
2005,05,23,15,11,16.70
2005,05,23,15,12,16.70
2005,05,23,15,13,16.80
2005,05,23,15,14,16.90
2005,05,23,15,15,17.00
2005,05,23,15,16,17.10
2005,05,23,15,17,17.10
2005,05,23,15,18,17.10
2005,05,23,15,19,17.10
2005,05,23,15,20,17.10
2005,05,23,15,21,17.10
2005,05,23,15,22,17.00
2005,05,23,15,23,17.10
2005,05,23,15,24,17.20
2005,05,23,15,25,17.10
2005,05,23,15,26,17.10
2005,05,23,15,27,17.00
2005,05,23,15,28,17.10
2005,05,23,15,29,17.00
2005,05,23,15,30,16.90
2005,05,23,15,31,16.70
2005,05,23,15,32,16.40
2005,05,23,15,33,16.30
2005,05,23,15,34,16.20
2005,05,23,15,35,16.30
2005,05,23,15,36,16.50
2005,05,23,15,37,16.70
2005,05,23,15,38,16.70
2005,05,23,15,39,16.90
2005,05,23,15,40,16.90
2005,05,23,15,41,16.90
2005,05,23,15,42,16.90
2005,05,23,15,43,17.00
2005,05,23,15,44,17.00
2005,05,23,15,45,17.00
2005,05,23,15,46,17.00
2005,05,23,15,47,17.00
2005,05,23,15,48,17.20
2005,05,23,15,49,17.30
2005,05,23,15,50,17.30
2005,05,23,15,51,17.50
2005,05,23,15,52,17.70
2005,05,23,15,53,17.80
2005,05,23,15,54,17.90
2005,05,23,15,55,17.90
2005,05,23,15,56,17.70
2005,05,23,15,57,17.60
2005,05,23,15,58,17.50
2005,05,23,15,59,17.40
2005,05,23,16,00,17.20
2005,05,23,16,01,16.70
2005,05,23,16,02,16.50
2005,05,23,16,03,16.20
2005,05,23,16,04,15.90
2005,05,23,16,05,15.80
2005,05,23,16,06,15.70
2005,05,23,16,07,15.60
2005,05,23,16,08,15.50
2005,05,23,16,09,15.40
2005,05,23,16,10,15.30
2005,05,23,16,11,15.30
2005,05,23,16,12,15.20
2005,05,23,16,13,15.20
2005,05,23,16,14,15.00
2005,05,23,16,15,15.00
2005,05,23,16,16,15.10
2005,05,23,16,17,15.10
2005,05,23,16,18,15.10
2005,05,23,16,19,15.00
2005,05,23,16,20,14.90
2005,05,23,16,21,14.80
2005,05,23,16,22,14.80
2005,05,23,16,23,14.80
2005,05,23,16,24,14.80
2005,05,23,16,25,15.00
2005,05,23,16,26,15.10
2005,05,23,16,27,15.00
2005,05,23,16,28,14.90
2005,05,23,16,29,15.00
2005,05,23,16,30,15.00
2005,05,23,16,31,15.00
2005,05,23,16,32,15.10
2005,05,23,16,33,15.20
2005,05,23,16,34,15.30
2005,05,23,16,35,15.20
2005,05,23,16,36,15.10
2005,05,23,16,37,15.10
2005,05,23,16,38,15.20
2005,05,23,16,39,15.20
2005,05,23,16,40,15.00
2005,05,23,16,41,15.00
2005,05,23,16,42,15.10
2005,05,23,16,43,15.30
2005,05,23,16,44,15.30
2005,05,23,16,45,15.10
2005,05,23,16,46,14.90
2005,05,23,16,47,14.90
2005,05,23,16,48,15.20
2005,05,23,16,49,15.30
2005,05,23,16,50,15.60
2005,05,23,16,51,15.70
2005,05,23,16,52,15.80
2005,05,23,16,53,15.90
2005,05,23,16,54,16.10
2005,05,23,16,55,16.10
2005,05,23,16,56,16.10
2005,05,23,16,57,16.10
2005,05,23,16,58,16.30
2005,05,23,16,59,16.40
2005,05,23,17,00,16.40
2005,05,23,17,01,16.40
2005,05,23,17,02,16.40
2005,05,23,17,03,16.50
2005,05,23,17,04,16.50
2005,05,23,17,05,16.40
2005,05,23,17,06,16.40
2005,05,23,17,07,16.40
2005,05,23,17,08,16.40
2005,05,23,17,09,16.40
2005,05,23,17,10,16.40
2005,05,23,17,11,16.40
2005,05,23,17,12,16.40
2005,05,23,17,13,16.50
2005,05,23,17,14,16.50
2005,05,23,17,15,16.60
2005,05,23,17,16,16.60
2005,05,23,17,17,16.50
2005,05,23,17,18,16.40
2005,05,23,17,19,16.30
2005,05,23,17,20,16.20
2005,05,23,17,21,16.10
2005,05,23,17,22,16.10
2005,05,23,17,23,16.10
2005,05,23,17,24,16.10
2005,05,23,17,25,16.00
2005,05,23,17,26,15.80
2005,05,23,17,27,15.70
2005,05,23,17,28,15.80
2005,05,23,17,29,15.70